owner,sensor,date,latitude,longitude,relative_humidity,qcFlag 
LUMCON,ioos:station:LUMCON:102:1,2019-05-01T00:00:00Z,29.1870,-90.6093,81.7,11111222 
LUMCON,ioos:station:LUMCON:102:1,2019-05-01T00:15:00Z,29.1870,-90.6093,82.0,11111222 
LUMCON,ioos:station:LUMCON:102:1,2019-05-01T00:30:00Z,29.1870,-90.6093,83.3,11111222 
LUMCON,ioos:station:LUMCON:102:1,2019-05-01T00:45:00Z,29.1870,-90.6093,83.8,11111222 
LUMCON,ioos:station:LUMCON:102:1,2019-05-01T01:00:00Z,29.1870,-90.6093,84.8,11111222 
LUMCON,ioos:station:LUMCON:102:1,2019-05-01T01:15:00Z,29.1870,-90.6093,84.5,11111222 
LUMCON,ioos:station:LUMCON:102:1,2019-05-01T01:30:00Z,29.1870,-90.6093,85.5,11111222 
LUMCON,ioos:station:LUMCON:102:1,2019-05-01T01:45:00Z,29.1870,-90.6093,85.6,11111222 
LUMCON,ioos:station:LUMCON:102:1,2019-05-01T02:00:00Z,29.1870,-90.6093,85.8,11111222 
LUMCON,ioos:station:LUMCON:102:1,2019-05-01T02:15:00Z,29.1870,-90.6093,86.4,11111222 
LUMCON,ioos:station:LUMCON:102:1,2019-05-01T02:30:00Z,29.1870,-90.6093,87.5,11111222 
LUMCON,ioos:station:LUMCON:102:1,2019-05-01T02:45:00Z,29.1870,-90.6093,87.8,11111222 
LUMCON,ioos:station:LUMCON:102:1,2019-05-01T03:00:00Z,29.1870,-90.6093,87.4,11111222 
LUMCON,ioos:station:LUMCON:102:1,2019-05-01T03:15:00Z,29.1870,-90.6093,87.7,11111222 
LUMCON,ioos:station:LUMCON:102:1,2019-05-01T03:30:00Z,29.1870,-90.6093,88.2,11111222 
LUMCON,ioos:station:LUMCON:102:1,2019-05-01T03:45:00Z,29.1870,-90.6093,87.9,11111222 
LUMCON,ioos:station:LUMCON:102:1,2019-05-01T04:00:00Z,29.1870,-90.6093,88.1,11111222 
LUMCON,ioos:station:LUMCON:102:1,2019-05-01T04:15:00Z,29.1870,-90.6093,87.8,11111222 
LUMCON,ioos:station:LUMCON:102:1,2019-05-01T04:30:00Z,29.1870,-90.6093,88.6,11111222 
LUMCON,ioos:station:LUMCON:102:1,2019-05-01T04:45:00Z,29.1870,-90.6093,87.9,11111222 
LUMCON,ioos:station:LUMCON:102:1,2019-05-01T05:00:00Z,29.1870,-90.6093,88.2,11111222 
LUMCON,ioos:station:LUMCON:102:1,2019-05-01T05:15:00Z,29.1870,-90.6093,88.3,11111222 
LUMCON,ioos:station:LUMCON:102:1,2019-05-01T05:30:00Z,29.1870,-90.6093,88.5,11111222 
LUMCON,ioos:station:LUMCON:102:1,2019-05-01T05:45:00Z,29.1870,-90.6093,88.2,11111222 
LUMCON,ioos:station:LUMCON:102:1,2019-05-01T06:00:00Z,29.1870,-90.6093,88.4,11111222 
LUMCON,ioos:station:LUMCON:102:1,2019-05-01T06:15:00Z,29.1870,-90.6093,88.6,11111222 
LUMCON,ioos:station:LUMCON:102:1,2019-05-01T06:30:00Z,29.1870,-90.6093,88.4,11111222 
LUMCON,ioos:station:LUMCON:102:1,2019-05-01T06:45:00Z,29.1870,-90.6093,88.5,11111222 
LUMCON,ioos:station:LUMCON:102:1,2019-05-01T07:00:00Z,29.1870,-90.6093,88.9,11111222 
LUMCON,ioos:station:LUMCON:102:1,2019-05-01T07:15:00Z,29.1870,-90.6093,88.7,11111222 
LUMCON,ioos:station:LUMCON:102:1,2019-05-01T07:30:00Z,29.1870,-90.6093,88.0,11111222 
LUMCON,ioos:station:LUMCON:102:1,2019-05-01T07:45:00Z,29.1870,-90.6093,88.1,11111222 
LUMCON,ioos:station:LUMCON:102:1,2019-05-01T08:00:00Z,29.1870,-90.6093,87.7,11111222 
LUMCON,ioos:station:LUMCON:102:1,2019-05-01T08:15:00Z,29.1870,-90.6093,86.7,11111222 
LUMCON,ioos:station:LUMCON:102:1,2019-05-01T08:30:00Z,29.1870,-90.6093,85.1,11111222 
LUMCON,ioos:station:LUMCON:102:1,2019-05-01T08:45:00Z,29.1870,-90.6093,84.5,11111222 
LUMCON,ioos:station:LUMCON:102:1,2019-05-01T09:00:00Z,29.1870,-90.6093,84.2,11111222 
LUMCON,ioos:station:LUMCON:102:1,2019-05-01T09:15:00Z,29.1870,-90.6093,84.8,11111222 
LUMCON,ioos:station:LUMCON:102:1,2019-05-01T09:30:00Z,29.1870,-90.6093,84.5,11111222 
LUMCON,ioos:station:LUMCON:102:1,2019-05-01T09:45:00Z,29.1870,-90.6093,83.7,11111222 
LUMCON,ioos:station:LUMCON:102:1,2019-05-01T10:00:00Z,29.1870,-90.6093,82.9,11111222 
LUMCON,ioos:station:LUMCON:102:1,2019-05-01T10:15:00Z,29.1870,-90.6093,82.9,11111222 
LUMCON,ioos:station:LUMCON:102:1,2019-05-01T10:30:00Z,29.1870,-90.6093,83.3,11111222 
LUMCON,ioos:station:LUMCON:102:1,2019-05-01T10:45:00Z,29.1870,-90.6093,83.2,11111222 
LUMCON,ioos:station:LUMCON:102:1,2019-05-01T11:00:00Z,29.1870,-90.6093,83.5,11111222 
LUMCON,ioos:station:LUMCON:102:1,2019-05-01T11:15:00Z,29.1870,-90.6093,84.3,11111222 
LUMCON,ioos:station:LUMCON:102:1,2019-05-01T11:30:00Z,29.1870,-90.6093,85.1,11111222 
LUMCON,ioos:station:LUMCON:102:1,2019-05-01T11:45:00Z,29.1870,-90.6093,85.2,11111222 
LUMCON,ioos:station:LUMCON:102:1,2019-05-01T12:00:00Z,29.1870,-90.6093,85.3,11111222 
LUMCON,ioos:station:LUMCON:102:1,2019-05-01T12:15:00Z,29.1870,-90.6093,85.2,11111222 
LUMCON,ioos:station:LUMCON:102:1,2019-05-01T12:30:00Z,29.1870,-90.6093,86.3,11111222 
LUMCON,ioos:station:LUMCON:102:1,2019-05-01T12:45:00Z,29.1870,-90.6093,86.0,11111222 
LUMCON,ioos:station:LUMCON:102:1,2019-05-01T13:00:00Z,29.1870,-90.6093,85.2,11111222 
LUMCON,ioos:station:LUMCON:102:1,2019-05-01T13:15:00Z,29.1870,-90.6093,85.6,11111222 
LUMCON,ioos:station:LUMCON:102:1,2019-05-01T13:30:00Z,29.1870,-90.6093,85.0,11111222 
LUMCON,ioos:station:LUMCON:102:1,2019-05-01T13:45:00Z,29.1870,-90.6093,85.5,11111222 
LUMCON,ioos:station:LUMCON:102:1,2019-05-01T14:00:00Z,29.1870,-90.6093,85.1,11111222 
LUMCON,ioos:station:LUMCON:102:1,2019-05-01T14:15:00Z,29.1870,-90.6093,84.9,11111222 
LUMCON,ioos:station:LUMCON:102:1,2019-05-01T14:30:00Z,29.1870,-90.6093,85.1,11111222 
LUMCON,ioos:station:LUMCON:102:1,2019-05-01T14:45:00Z,29.1870,-90.6093,85.6,11111222 
LUMCON,ioos:station:LUMCON:102:1,2019-05-01T15:00:00Z,29.1870,-90.6093,85.8,11111222 
LUMCON,ioos:station:LUMCON:102:1,2019-05-01T15:15:00Z,29.1870,-90.6093,85.6,11111222 
LUMCON,ioos:station:LUMCON:102:1,2019-05-01T15:30:00Z,29.1870,-90.6093,85.3,11111222 
LUMCON,ioos:station:LUMCON:102:1,2019-05-01T15:45:00Z,29.1870,-90.6093,84.3,11111222 
LUMCON,ioos:station:LUMCON:102:1,2019-05-01T16:00:00Z,29.1870,-90.6093,84.7,11111222 
LUMCON,ioos:station:LUMCON:102:1,2019-05-01T16:15:00Z,29.1870,-90.6093,85.1,11111222 
LUMCON,ioos:station:LUMCON:102:1,2019-05-01T16:30:00Z,29.1870,-90.6093,84.7,11111222 
LUMCON,ioos:station:LUMCON:102:1,2019-05-01T16:45:00Z,29.1870,-90.6093,84.8,11111222 
LUMCON,ioos:station:LUMCON:102:1,2019-05-01T17:00:00Z,29.1870,-90.6093,86.5,11111222 
LUMCON,ioos:station:LUMCON:102:1,2019-05-01T17:15:00Z,29.1870,-90.6093,85.6,11111222 
LUMCON,ioos:station:LUMCON:102:1,2019-05-01T17:30:00Z,29.1870,-90.6093,85.2,11111222 
LUMCON,ioos:station:LUMCON:102:1,2019-05-01T17:45:00Z,29.1870,-90.6093,84.5,11111222 
LUMCON,ioos:station:LUMCON:102:1,2019-05-01T18:00:00Z,29.1870,-90.6093,83.9,11111222 
LUMCON,ioos:station:LUMCON:102:1,2019-05-01T18:15:00Z,29.1870,-90.6093,84.3,11111222 
LUMCON,ioos:station:LUMCON:102:1,2019-05-01T18:30:00Z,29.1870,-90.6093,84.3,11111222 
LUMCON,ioos:station:LUMCON:102:1,2019-05-01T18:45:00Z,29.1870,-90.6093,84.6,11111222 
LUMCON,ioos:station:LUMCON:102:1,2019-05-01T19:00:00Z,29.1870,-90.6093,85.5,11111222 
LUMCON,ioos:station:LUMCON:102:1,2019-05-01T19:15:00Z,29.1870,-90.6093,84.2,11111222 
LUMCON,ioos:station:LUMCON:102:1,2019-05-01T19:30:00Z,29.1870,-90.6093,85.0,11111222 
LUMCON,ioos:station:LUMCON:102:1,2019-05-01T19:45:00Z,29.1870,-90.6093,84.5,11111222 
LUMCON,ioos:station:LUMCON:102:1,2019-05-01T20:00:00Z,29.1870,-90.6093,85.1,11111222 
LUMCON,ioos:station:LUMCON:102:1,2019-05-01T20:15:00Z,29.1870,-90.6093,85.3,11111222 
LUMCON,ioos:station:LUMCON:102:1,2019-05-01T20:30:00Z,29.1870,-90.6093,84.3,11111222 
LUMCON,ioos:station:LUMCON:102:1,2019-05-01T20:45:00Z,29.1870,-90.6093,83.8,11111222 
LUMCON,ioos:station:LUMCON:102:1,2019-05-01T21:00:00Z,29.1870,-90.6093,85.9,11111222 
LUMCON,ioos:station:LUMCON:102:1,2019-05-01T21:15:00Z,29.1870,-90.6093,84.7,11111222 
LUMCON,ioos:station:LUMCON:102:1,2019-05-01T21:30:00Z,29.1870,-90.6093,84.8,11111222 
LUMCON,ioos:station:LUMCON:102:1,2019-05-01T21:45:00Z,29.1870,-90.6093,84.8,11111222 
LUMCON,ioos:station:LUMCON:102:1,2019-05-01T22:00:00Z,29.1870,-90.6093,84.9,11111222 
LUMCON,ioos:station:LUMCON:102:1,2019-05-01T22:15:00Z,29.1870,-90.6093,84.8,11111222 
LUMCON,ioos:station:LUMCON:102:1,2019-05-01T22:30:00Z,29.1870,-90.6093,85.6,11111222 
LUMCON,ioos:station:LUMCON:102:1,2019-05-01T22:45:00Z,29.1870,-90.6093,86.0,11111222 
LUMCON,ioos:station:LUMCON:102:1,2019-05-01T23:00:00Z,29.1870,-90.6093,84.9,11111222 
LUMCON,ioos:station:LUMCON:102:1,2019-05-01T23:15:00Z,29.1870,-90.6093,84.5,11111222 
LUMCON,ioos:station:LUMCON:102:1,2019-05-01T23:30:00Z,29.1870,-90.6093,84.4,11111222 
LUMCON,ioos:station:LUMCON:102:1,2019-05-01T23:45:00Z,29.1870,-90.6093,85.0,11111222 
LUMCON,ioos:station:LUMCON:102:1,2019-05-02T00:00:00Z,29.1870,-90.6093,83.8,11111222 
LUMCON,ioos:station:LUMCON:102:1,2019-05-02T00:15:00Z,29.1870,-90.6093,83.5,11111222 
LUMCON,ioos:station:LUMCON:102:1,2019-05-02T00:30:00Z,29.1870,-90.6093,84.2,11111222 
LUMCON,ioos:station:LUMCON:102:1,2019-05-02T00:45:00Z,29.1870,-90.6093,84.4,11111222 
LUMCON,ioos:station:LUMCON:102:1,2019-05-02T01:00:00Z,29.1870,-90.6093,83.2,11111222 
LUMCON,ioos:station:LUMCON:102:1,2019-05-02T01:15:00Z,29.1870,-90.6093,83.6,11111222 
LUMCON,ioos:station:LUMCON:102:1,2019-05-02T01:30:00Z,29.1870,-90.6093,84.6,11111222 
LUMCON,ioos:station:LUMCON:102:1,2019-05-02T01:45:00Z,29.1870,-90.6093,85.1,11111222 
LUMCON,ioos:station:LUMCON:102:1,2019-05-02T02:00:00Z,29.1870,-90.6093,83.6,11111222 
LUMCON,ioos:station:LUMCON:102:1,2019-05-02T02:15:00Z,29.1870,-90.6093,83.9,11111222 
LUMCON,ioos:station:LUMCON:102:1,2019-05-02T02:30:00Z,29.1870,-90.6093,83.6,11111222 
LUMCON,ioos:station:LUMCON:102:1,2019-05-02T02:45:00Z,29.1870,-90.6093,85.0,11111222 
LUMCON,ioos:station:LUMCON:102:1,2019-05-02T03:00:00Z,29.1870,-90.6093,83.8,11111222 
LUMCON,ioos:station:LUMCON:102:1,2019-05-02T03:15:00Z,29.1870,-90.6093,84.3,11111222 
LUMCON,ioos:station:LUMCON:102:1,2019-05-02T03:30:00Z,29.1870,-90.6093,85.5,11111222 
LUMCON,ioos:station:LUMCON:102:1,2019-05-02T03:45:00Z,29.1870,-90.6093,83.9,11111222 
LUMCON,ioos:station:LUMCON:102:1,2019-05-02T04:00:00Z,29.1870,-90.6093,84.2,11111222 
LUMCON,ioos:station:LUMCON:102:1,2019-05-02T04:15:00Z,29.1870,-90.6093,84.4,11111222 
LUMCON,ioos:station:LUMCON:102:1,2019-05-02T04:30:00Z,29.1870,-90.6093,85.0,11111222 
LUMCON,ioos:station:LUMCON:102:1,2019-05-02T04:45:00Z,29.1870,-90.6093,84.9,11111222 
LUMCON,ioos:station:LUMCON:102:1,2019-05-02T05:00:00Z,29.1870,-90.6093,84.2,11111222 
LUMCON,ioos:station:LUMCON:102:1,2019-05-02T05:15:00Z,29.1870,-90.6093,85.1,11111222 
LUMCON,ioos:station:LUMCON:102:1,2019-05-02T05:30:00Z,29.1870,-90.6093,85.1,11111222 
LUMCON,ioos:station:LUMCON:102:1,2019-05-02T05:45:00Z,29.1870,-90.6093,86.1,11111222 
LUMCON,ioos:station:LUMCON:102:1,2019-05-02T06:00:00Z,29.1870,-90.6093,85.3,11111222 
LUMCON,ioos:station:LUMCON:102:1,2019-05-02T06:15:00Z,29.1870,-90.6093,84.8,11111222 
LUMCON,ioos:station:LUMCON:102:1,2019-05-02T06:30:00Z,29.1870,-90.6093,84.8,11111222 
LUMCON,ioos:station:LUMCON:102:1,2019-05-02T06:45:00Z,29.1870,-90.6093,84.9,11111222 
LUMCON,ioos:station:LUMCON:102:1,2019-05-02T07:00:00Z,29.1870,-90.6093,85.9,11111222 
LUMCON,ioos:station:LUMCON:102:1,2019-05-02T07:15:00Z,29.1870,-90.6093,84.8,11111222 
LUMCON,ioos:station:LUMCON:102:1,2019-05-02T07:30:00Z,29.1870,-90.6093,85.2,11111222 
LUMCON,ioos:station:LUMCON:102:1,2019-05-02T07:45:00Z,29.1870,-90.6093,85.2,11111222 
LUMCON,ioos:station:LUMCON:102:1,2019-05-02T08:00:00Z,29.1870,-90.6093,85.1,11111222 
LUMCON,ioos:station:LUMCON:102:1,2019-05-02T08:15:00Z,29.1870,-90.6093,85.5,11111222 
LUMCON,ioos:station:LUMCON:102:1,2019-05-02T08:30:00Z,29.1870,-90.6093,85.6,11111222 
LUMCON,ioos:station:LUMCON:102:1,2019-05-02T08:45:00Z,29.1870,-90.6093,85.1,11111222 
LUMCON,ioos:station:LUMCON:102:1,2019-05-02T09:00:00Z,29.1870,-90.6093,85.6,11111222 
LUMCON,ioos:station:LUMCON:102:1,2019-05-02T09:15:00Z,29.1870,-90.6093,85.5,11111222 
LUMCON,ioos:station:LUMCON:102:1,2019-05-02T09:30:00Z,29.1870,-90.6093,85.6,11111222 
LUMCON,ioos:station:LUMCON:102:1,2019-05-02T09:45:00Z,29.1870,-90.6093,85.8,11111222 
LUMCON,ioos:station:LUMCON:102:1,2019-05-02T10:00:00Z,29.1870,-90.6093,86.0,11111222 
LUMCON,ioos:station:LUMCON:102:1,2019-05-02T10:15:00Z,29.1870,-90.6093,86.0,11111222 
LUMCON,ioos:station:LUMCON:102:1,2019-05-02T10:30:00Z,29.1870,-90.6093,85.4,11111222 
LUMCON,ioos:station:LUMCON:102:1,2019-05-02T10:45:00Z,29.1870,-90.6093,86.0,11111222 
LUMCON,ioos:station:LUMCON:102:1,2019-05-02T11:00:00Z,29.1870,-90.6093,84.9,11111222 
LUMCON,ioos:station:LUMCON:102:1,2019-05-02T11:15:00Z,29.1870,-90.6093,85.4,11111222 
LUMCON,ioos:station:LUMCON:102:1,2019-05-02T11:30:00Z,29.1870,-90.6093,84.0,11111222 
LUMCON,ioos:station:LUMCON:102:1,2019-05-02T11:45:00Z,29.1870,-90.6093,84.1,11111222 
LUMCON,ioos:station:LUMCON:102:1,2019-05-02T12:00:00Z,29.1870,-90.6093,84.2,11111222 
LUMCON,ioos:station:LUMCON:102:1,2019-05-02T12:15:00Z,29.1870,-90.6093,84.4,11111222 
LUMCON,ioos:station:LUMCON:102:1,2019-05-02T12:30:00Z,29.1870,-90.6093,84.2,11111222 
LUMCON,ioos:station:LUMCON:102:1,2019-05-02T12:45:00Z,29.1870,-90.6093,82.7,11111222 
LUMCON,ioos:station:LUMCON:102:1,2019-05-02T13:00:00Z,29.1870,-90.6093,82.5,11111222 
LUMCON,ioos:station:LUMCON:102:1,2019-05-02T13:15:00Z,29.1870,-90.6093,83.1,11111222 
LUMCON,ioos:station:LUMCON:102:1,2019-05-02T13:30:00Z,29.1870,-90.6093,83.2,11111222 
LUMCON,ioos:station:LUMCON:102:1,2019-05-02T13:45:00Z,29.1870,-90.6093,83.8,11111222 
LUMCON,ioos:station:LUMCON:102:1,2019-05-02T14:00:00Z,29.1870,-90.6093,82.9,11111222 
LUMCON,ioos:station:LUMCON:102:1,2019-05-02T14:15:00Z,29.1870,-90.6093,82.2,11111222 
LUMCON,ioos:station:LUMCON:102:1,2019-05-02T14:30:00Z,29.1870,-90.6093,82.2,11111222 
LUMCON,ioos:station:LUMCON:102:1,2019-05-02T14:45:00Z,29.1870,-90.6093,81.5,11111222 
LUMCON,ioos:station:LUMCON:102:1,2019-05-02T15:00:00Z,29.1870,-90.6093,82.0,11111222 
LUMCON,ioos:station:LUMCON:102:1,2019-05-02T15:15:00Z,29.1870,-90.6093,80.9,11111222 
LUMCON,ioos:station:LUMCON:102:1,2019-05-02T15:30:00Z,29.1870,-90.6093,81.2,11111222 
LUMCON,ioos:station:LUMCON:102:1,2019-05-02T15:45:00Z,29.1870,-90.6093,80.5,11111222 
LUMCON,ioos:station:LUMCON:102:1,2019-05-02T16:00:00Z,29.1870,-90.6093,79.0,11111222 
LUMCON,ioos:station:LUMCON:102:1,2019-05-02T16:15:00Z,29.1870,-90.6093,78.1,11111222 
LUMCON,ioos:station:LUMCON:102:1,2019-05-02T16:30:00Z,29.1870,-90.6093,77.6,11111222 
LUMCON,ioos:station:LUMCON:102:1,2019-05-02T16:45:00Z,29.1870,-90.6093,76.7,11111222 
LUMCON,ioos:station:LUMCON:102:1,2019-05-02T17:00:00Z,29.1870,-90.6093,75.9,11111222 
LUMCON,ioos:station:LUMCON:102:1,2019-05-02T17:15:00Z,29.1870,-90.6093,76.0,11111222 
LUMCON,ioos:station:LUMCON:102:1,2019-05-02T17:30:00Z,29.1870,-90.6093,75.4,11111222 
LUMCON,ioos:station:LUMCON:102:1,2019-05-02T17:45:00Z,29.1870,-90.6093,75.5,11111222 
LUMCON,ioos:station:LUMCON:102:1,2019-05-02T18:00:00Z,29.1870,-90.6093,73.8,11111222 
LUMCON,ioos:station:LUMCON:102:1,2019-05-02T18:15:00Z,29.1870,-90.6093,73.7,11111222 
LUMCON,ioos:station:LUMCON:102:1,2019-05-02T18:30:00Z,29.1870,-90.6093,74.1,11111222 
LUMCON,ioos:station:LUMCON:102:1,2019-05-02T18:45:00Z,29.1870,-90.6093,73.7,11111222 
LUMCON,ioos:station:LUMCON:102:1,2019-05-02T19:00:00Z,29.1870,-90.6093,73.9,11111222 
LUMCON,ioos:station:LUMCON:102:1,2019-05-02T19:15:00Z,29.1870,-90.6093,73.8,11111222 
LUMCON,ioos:station:LUMCON:102:1,2019-05-02T19:30:00Z,29.1870,-90.6093,75.1,11111222 
LUMCON,ioos:station:LUMCON:102:1,2019-05-02T19:45:00Z,29.1870,-90.6093,71.0,11111222 
LUMCON,ioos:station:LUMCON:102:1,2019-05-02T20:00:00Z,29.1870,-90.6093,71.7,11111222 
LUMCON,ioos:station:LUMCON:102:1,2019-05-02T20:15:00Z,29.1870,-90.6093,69.2,11111222 
LUMCON,ioos:station:LUMCON:102:1,2019-05-02T20:30:00Z,29.1870,-90.6093,71.3,11111222 
LUMCON,ioos:station:LUMCON:102:1,2019-05-02T20:45:00Z,29.1870,-90.6093,72.9,11111222 
LUMCON,ioos:station:LUMCON:102:1,2019-05-02T21:00:00Z,29.1870,-90.6093,68.4,11111222 
LUMCON,ioos:station:LUMCON:102:1,2019-05-02T21:15:00Z,29.1870,-90.6093,69.1,11111222 
LUMCON,ioos:station:LUMCON:102:1,2019-05-02T21:30:00Z,29.1870,-90.6093,72.1,11111222 
LUMCON,ioos:station:LUMCON:102:1,2019-05-02T21:45:00Z,29.1870,-90.6093,72.4,11111222 
LUMCON,ioos:station:LUMCON:102:1,2019-05-02T22:00:00Z,29.1870,-90.6093,73.6,11111222 
LUMCON,ioos:station:LUMCON:102:1,2019-05-02T22:15:00Z,29.1870,-90.6093,71.9,11111222 
LUMCON,ioos:station:LUMCON:102:1,2019-05-02T22:30:00Z,29.1870,-90.6093,75.6,11111222 
LUMCON,ioos:station:LUMCON:102:1,2019-05-02T22:45:00Z,29.1870,-90.6093,77.6,11111222 
LUMCON,ioos:station:LUMCON:102:1,2019-05-02T23:00:00Z,29.1870,-90.6093,77.1,11111222 
LUMCON,ioos:station:LUMCON:102:1,2019-05-02T23:15:00Z,29.1870,-90.6093,77.9,11111222 
LUMCON,ioos:station:LUMCON:102:1,2019-05-02T23:30:00Z,29.1870,-90.6093,77.6,11111222 
LUMCON,ioos:station:LUMCON:102:1,2019-05-02T23:45:00Z,29.1870,-90.6093,77.1,11111222 
LUMCON,ioos:station:LUMCON:102:1,2019-05-03T00:00:00Z,29.1870,-90.6093,79.1,11111222 
LUMCON,ioos:station:LUMCON:102:1,2019-05-03T00:15:00Z,29.1870,-90.6093,80.6,11111222 
LUMCON,ioos:station:LUMCON:102:1,2019-05-03T00:30:00Z,29.1870,-90.6093,80.8,11111222 
LUMCON,ioos:station:LUMCON:102:1,2019-05-03T00:45:00Z,29.1870,-90.6093,80.6,11111222 
LUMCON,ioos:station:LUMCON:102:1,2019-05-03T01:00:00Z,29.1870,-90.6093,84.3,11111222 
LUMCON,ioos:station:LUMCON:102:1,2019-05-03T01:15:00Z,29.1870,-90.6093,83.7,11111222 
LUMCON,ioos:station:LUMCON:102:1,2019-05-03T01:30:00Z,29.1870,-90.6093,84.1,11111222 
LUMCON,ioos:station:LUMCON:102:1,2019-05-03T01:45:00Z,29.1870,-90.6093,82.2,11111222 
LUMCON,ioos:station:LUMCON:102:1,2019-05-03T02:00:00Z,29.1870,-90.6093,82.5,11111222 
LUMCON,ioos:station:LUMCON:102:1,2019-05-03T02:15:00Z,29.1870,-90.6093,82.2,11111222 
LUMCON,ioos:station:LUMCON:102:1,2019-05-03T02:30:00Z,29.1870,-90.6093,82.7,11111222 
LUMCON,ioos:station:LUMCON:102:1,2019-05-03T02:45:00Z,29.1870,-90.6093,83.1,11111222 
LUMCON,ioos:station:LUMCON:102:1,2019-05-03T03:00:00Z,29.1870,-90.6093,82.5,11111222 
LUMCON,ioos:station:LUMCON:102:1,2019-05-03T03:15:00Z,29.1870,-90.6093,81.7,11111222 
LUMCON,ioos:station:LUMCON:102:1,2019-05-03T03:30:00Z,29.1870,-90.6093,81.3,11111222 
LUMCON,ioos:station:LUMCON:102:1,2019-05-03T03:45:00Z,29.1870,-90.6093,81.2,11111222 
LUMCON,ioos:station:LUMCON:102:1,2019-05-03T04:00:00Z,29.1870,-90.6093,81.4,11111222 
LUMCON,ioos:station:LUMCON:102:1,2019-05-03T04:15:00Z,29.1870,-90.6093,81.6,11111222 
LUMCON,ioos:station:LUMCON:102:1,2019-05-03T04:30:00Z,29.1870,-90.6093,81.7,11111222 
LUMCON,ioos:station:LUMCON:102:1,2019-05-03T04:45:00Z,29.1870,-90.6093,82.2,11111222 
LUMCON,ioos:station:LUMCON:102:1,2019-05-03T05:00:00Z,29.1870,-90.6093,81.7,11111222 
LUMCON,ioos:station:LUMCON:102:1,2019-05-03T05:15:00Z,29.1870,-90.6093,81.1,11111222 
LUMCON,ioos:station:LUMCON:102:1,2019-05-03T05:30:00Z,29.1870,-90.6093,79.9,11111222 
LUMCON,ioos:station:LUMCON:102:1,2019-05-03T05:45:00Z,29.1870,-90.6093,81.0,11111222 
LUMCON,ioos:station:LUMCON:102:1,2019-05-03T06:00:00Z,29.1870,-90.6093,80.5,11111222 
LUMCON,ioos:station:LUMCON:102:1,2019-05-03T06:15:00Z,29.1870,-90.6093,79.5,11111222 
LUMCON,ioos:station:LUMCON:102:1,2019-05-03T06:30:00Z,29.1870,-90.6093,79.4,11111222 
LUMCON,ioos:station:LUMCON:102:1,2019-05-03T06:45:00Z,29.1870,-90.6093,79.4,11111222 
LUMCON,ioos:station:LUMCON:102:1,2019-05-03T07:00:00Z,29.1870,-90.6093,80.3,11111222 
LUMCON,ioos:station:LUMCON:102:1,2019-05-03T07:15:00Z,29.1870,-90.6093,79.7,11111222 
LUMCON,ioos:station:LUMCON:102:1,2019-05-03T07:30:00Z,29.1870,-90.6093,78.7,11111222 
LUMCON,ioos:station:LUMCON:102:1,2019-05-03T07:45:00Z,29.1870,-90.6093,79.3,11111222 
LUMCON,ioos:station:LUMCON:102:1,2019-05-03T08:00:00Z,29.1870,-90.6093,79.7,11111222 
LUMCON,ioos:station:LUMCON:102:1,2019-05-03T08:15:00Z,29.1870,-90.6093,80.1,11111222 
LUMCON,ioos:station:LUMCON:102:1,2019-05-03T08:30:00Z,29.1870,-90.6093,80.0,11111222 
LUMCON,ioos:station:LUMCON:102:1,2019-05-03T08:45:00Z,29.1870,-90.6093,80.2,11111222 
LUMCON,ioos:station:LUMCON:102:1,2019-05-03T09:00:00Z,29.1870,-90.6093,79.7,11111222 
LUMCON,ioos:station:LUMCON:102:1,2019-05-03T09:15:00Z,29.1870,-90.6093,80.4,11111222 
LUMCON,ioos:station:LUMCON:102:1,2019-05-03T09:30:00Z,29.1870,-90.6093,81.0,11111222 
LUMCON,ioos:station:LUMCON:102:1,2019-05-03T09:45:00Z,29.1870,-90.6093,80.5,11111222 
LUMCON,ioos:station:LUMCON:102:1,2019-05-03T10:00:00Z,29.1870,-90.6093,80.7,11111222 
LUMCON,ioos:station:LUMCON:102:1,2019-05-03T10:15:00Z,29.1870,-90.6093,80.1,11111222 
LUMCON,ioos:station:LUMCON:102:1,2019-05-03T10:30:00Z,29.1870,-90.6093,79.8,11111222 
LUMCON,ioos:station:LUMCON:102:1,2019-05-03T10:45:00Z,29.1870,-90.6093,79.1,11111222 
LUMCON,ioos:station:LUMCON:102:1,2019-05-03T11:00:00Z,29.1870,-90.6093,79.2,11111222 
LUMCON,ioos:station:LUMCON:102:1,2019-05-03T11:15:00Z,29.1870,-90.6093,78.7,11111222 
LUMCON,ioos:station:LUMCON:102:1,2019-05-03T11:30:00Z,29.1870,-90.6093,78.2,11111222 
LUMCON,ioos:station:LUMCON:102:1,2019-05-03T11:45:00Z,29.1870,-90.6093,78.3,11111222 
LUMCON,ioos:station:LUMCON:102:1,2019-05-03T12:00:00Z,29.1870,-90.6093,77.5,11111222 
LUMCON,ioos:station:LUMCON:102:1,2019-05-03T12:15:00Z,29.1870,-90.6093,78.2,11111222 
LUMCON,ioos:station:LUMCON:102:1,2019-05-03T12:30:00Z,29.1870,-90.6093,78.5,11111222 
LUMCON,ioos:station:LUMCON:102:1,2019-05-03T12:45:00Z,29.1870,-90.6093,77.1,11111222 
LUMCON,ioos:station:LUMCON:102:1,2019-05-03T13:00:00Z,29.1870,-90.6093,76.1,11111222 
LUMCON,ioos:station:LUMCON:102:1,2019-05-03T13:15:00Z,29.1870,-90.6093,77.3,11111222 
LUMCON,ioos:station:LUMCON:102:1,2019-05-03T13:30:00Z,29.1870,-90.6093,76.7,11111222 
LUMCON,ioos:station:LUMCON:102:1,2019-05-03T13:45:00Z,29.1870,-90.6093,77.8,11111222 
LUMCON,ioos:station:LUMCON:102:1,2019-05-03T14:00:00Z,29.1870,-90.6093,80.9,11111222 
LUMCON,ioos:station:LUMCON:102:1,2019-05-03T14:15:00Z,29.1870,-90.6093,79.9,11111222 
LUMCON,ioos:station:LUMCON:102:1,2019-05-03T14:30:00Z,29.1870,-90.6093,79.5,11111222 
LUMCON,ioos:station:LUMCON:102:1,2019-05-03T14:45:00Z,29.1870,-90.6093,80.0,11111222 
LUMCON,ioos:station:LUMCON:102:1,2019-05-03T15:00:00Z,29.1870,-90.6093,78.9,11111222 
LUMCON,ioos:station:LUMCON:102:1,2019-05-03T15:15:00Z,29.1870,-90.6093,79.2,11111222 
LUMCON,ioos:station:LUMCON:102:1,2019-05-03T15:30:00Z,29.1870,-90.6093,79.4,11111222 
LUMCON,ioos:station:LUMCON:102:1,2019-05-03T15:45:00Z,29.1870,-90.6093,80.1,11111222 
LUMCON,ioos:station:LUMCON:102:1,2019-05-03T16:00:00Z,29.1870,-90.6093,79.4,11111222 
LUMCON,ioos:station:LUMCON:102:1,2019-05-03T16:15:00Z,29.1870,-90.6093,77.2,11111222 
LUMCON,ioos:station:LUMCON:102:1,2019-05-03T16:30:00Z,29.1870,-90.6093,77.8,11111222 
LUMCON,ioos:station:LUMCON:102:1,2019-05-03T16:45:00Z,29.1870,-90.6093,78.4,11111222 
LUMCON,ioos:station:LUMCON:102:1,2019-05-03T17:00:00Z,29.1870,-90.6093,76.0,11111222 
LUMCON,ioos:station:LUMCON:102:1,2019-05-03T17:15:00Z,29.1870,-90.6093,76.6,11111222 
LUMCON,ioos:station:LUMCON:102:1,2019-05-03T17:30:00Z,29.1870,-90.6093,77.1,11111222 
LUMCON,ioos:station:LUMCON:102:1,2019-05-03T17:45:00Z,29.1870,-90.6093,77.6,11111222 
LUMCON,ioos:station:LUMCON:102:1,2019-05-03T18:00:00Z,29.1870,-90.6093,78.2,11111222 
LUMCON,ioos:station:LUMCON:102:1,2019-05-03T18:15:00Z,29.1870,-90.6093,78.5,11111222 
LUMCON,ioos:station:LUMCON:102:1,2019-05-03T18:30:00Z,29.1870,-90.6093,78.5,11111222 
LUMCON,ioos:station:LUMCON:102:1,2019-05-03T18:45:00Z,29.1870,-90.6093,77.5,11111222 
LUMCON,ioos:station:LUMCON:102:1,2019-05-03T19:00:00Z,29.1870,-90.6093,76.2,11111222 
LUMCON,ioos:station:LUMCON:102:1,2019-05-03T19:15:00Z,29.1870,-90.6093,77.4,11111222 
LUMCON,ioos:station:LUMCON:102:1,2019-05-03T19:30:00Z,29.1870,-90.6093,77.3,11111222 
LUMCON,ioos:station:LUMCON:102:1,2019-05-03T19:45:00Z,29.1870,-90.6093,78.6,11111222 
LUMCON,ioos:station:LUMCON:102:1,2019-05-03T20:00:00Z,29.1870,-90.6093,80.1,11111222 
LUMCON,ioos:station:LUMCON:102:1,2019-05-03T20:15:00Z,29.1870,-90.6093,79.6,11111222 
LUMCON,ioos:station:LUMCON:102:1,2019-05-03T20:30:00Z,29.1870,-90.6093,78.9,11111222 
LUMCON,ioos:station:LUMCON:102:1,2019-05-03T20:45:00Z,29.1870,-90.6093,78.8,11111222 
LUMCON,ioos:station:LUMCON:102:1,2019-05-03T21:00:00Z,29.1870,-90.6093,79.8,11111222 
LUMCON,ioos:station:LUMCON:102:1,2019-05-03T21:15:00Z,29.1870,-90.6093,77.5,11111222 